User: anonymous   Login
Location: Unspecified
(0.0000°N, 0.0000°E)
Time: 06:48:57
(UTC+00:00)
Language:

STARLINK-3129 - Orbit

View from above orbital plane
View from above orbital plane
View from above satellite
View from above satellite

Ground track
Ground track

The orbit is defined by the following mean orbital elements,

1 49453U          26145.51917549 +.00000000 +00000-0 +88453-5 0 00000
2 49453  53.2171 234.3073 0001017  84.0771 276.0337 15.08834749    01
Epoch (UTC): 25 May 2026 12:27:36
Eccentricity: 0.0001017
inclination: 53.2171°
perigee height: 539 km
apogee height: 540 km
right ascension of ascending node: 234.3073°
argument of perigee: 84.0771°
revolutions per day: 15.08834749
mean anomaly at epoch: 276.0337°

The dashed part of the orbit path shows where the satellite is in the earth's shadow,  

DLR